{"data":{"norad_id":56703,"epoch":"2026-05-25T04:22:57.238752Z","epoch_age_seconds":59290,"freshness":"FRESH","line1":"1 56703U 23067R   26145.18260693  .00000758  00000+0  37063-4 0  9994","line2":"2 56703  42.9976 202.0463 0001050 280.4168  79.6565 15.27573386167360","mean_motion":15.27573386,"eccentricity":0.000105,"inclination_deg":42.9976,"raan_deg":202.0463,"arg_perigee_deg":280.4168,"mean_anomaly_deg":79.6565,"bstar":3.7063e-5,"rev_number":16736,"period_min":94.267156864436,"perigee_km":482.3484741869,"apogee_km":483.78932742607,"semimajor_km":6861.2059008065,"source":"CELESTRAK","updated_at":"2026-05-25T13:38:18.121794Z"}}